Tiempo cada hora Czyzew

Hoy, 13 Mayo, Jueves

Tiempo Temperatura Precipitaciones Viento Presión Humedad
00:00 +13°C° 0 mm 4 mps 744 mmHg 83%
01:00 +12°C° 0 mm 4 mps 744 mmHg 83%
02:00 +11°C° 0 mm 4 mps 743 mmHg 85%
03:00 +10°C° 0 mm 4 mps 743 mmHg 87%
04:00 +9°C° 0 mm 3 mps 743 mmHg 89%
05:00 +10°C° 0 mm 4 mps 743 mmHg 84%
06:00 +12°C° 0 mm 4 mps 742 mmHg 78%
07:00 +13°C° 0 mm 4 mps 742 mmHg 73%
08:00 +14°C° 0 mm 5 mps 742 mmHg 67%
09:00 +15°C° 0 mm 5 mps 742 mmHg 61%
10:00 +17°C° 0 mm 5 mps 741 mmHg 56%
11:00 +18°C° 0 mm 4 mps 741 mmHg 53%
12:00 +19°C° 0 mm 4 mps 741 mmHg 51%
13:00 +20°C° 0 mm 4 mps 740 mmHg 48%
14:00 +20°C° 0 mm 4 mps 740 mmHg 49%
15:00 +20°C° 0 mm 3 mps 740 mmHg 50%
16:00 +19°C° 0 mm 3 mps 739 mmHg 51%
17:00 +18°C° 0 mm 3 mps 739 mmHg 59%
18:00 +16°C° 0 mm 3 mps 739 mmHg 68%
19:00 +15°C° 0 mm 2 mps 739 mmHg 76%
20:00 +14°C° 0 mm 2 mps 739 mmHg 80%
21:00 +13°C° 0 mm 2 mps 739 mmHg 84%
22:00 +10°C° 0 mm 2 mps 739 mmHg 89%
23:00 +10°C° 0 mm 2 mps 739 mmHg 88%

Mañana, 14 Mayo, Viernes

Tiempo Temperatura Precipitaciones Viento Presión Humedad
00:00 +10°C° 0 mm 2 mps 739 mmHg 87%
01:00 +11°C° 0 mm 1 mps 739 mmHg 86%
02:00 +12°C° 0 mm 1 mps 739 mmHg 85%
03:00 +12°C° 0 mm 1 mps 739 mmHg 84%
04:00 +12°C° 0 mm 1 mps 739 mmHg 82%
05:00 +13°C° 0 mm 1 mps 740 mmHg 82%
06:00 +13°C° 0 mm 1 mps 740 mmHg 81%
07:00 +13°C° 0 mm 0 mps 740 mmHg 80%
08:00 +15°C° 0.2 mm 1 mps 740 mmHg 76%
09:00 +16°C° 0.2 mm 2 mps 741 mmHg 73%
10:00 +17°C° 0.2 mm 3 mps 741 mmHg 70%
11:00 +18°C° 0.9 mm 4 mps 741 mmHg 70%
12:00 +17°C° 0.9 mm 5 mps 741 mmHg 70%
13:00 +17°C° 0.9 mm 5 mps 741 mmHg 70%
14:00 +17°C° 0.8 mm 5 mps 742 mmHg 73%
15:00 +16°C° 0.8 mm 5 mps 742 mmHg 76%
16:00 +16°C° 0.8 mm 5 mps 742 mmHg 79%
17:00 +15°C° 0.3 mm 5 mps 742 mmHg 83%
18:00 +13°C° 0.3 mm 5 mps 743 mmHg 86%
19:00 +12°C° 0.3 mm 5 mps 743 mmHg 90%
20:00 +12°C° 0 mm 5 mps 743 mmHg 90%
21:00 +11°C° 0 mm 4 mps 743 mmHg 91%
22:00 +11°C° 0 mm 4 mps 744 mmHg 92%
23:00 +11°C° 0 mm 4 mps 744 mmHg 92%

Pasado mañana, 15 Mayo, Sábado

Tiempo Temperatura Precipitaciones Viento Presión Humedad
00:00 +10°C° 0 mm 4 mps 744 mmHg 92%
01:00 +10°C° 0 mm 3 mps 744 mmHg 92%
02:00 +10°C° 0 mm 3 mps 744 mmHg 92%
03:00 +10°C° 0 mm 3 mps 744 mmHg 92%
04:00 +10°C° 0 mm 3 mps 744 mmHg 91%
05:00 +10°C° 0 mm 3 mps 745 mmHg 91%
06:00 +10°C° 0 mm 3 mps 745 mmHg 91%
07:00 +10°C° 0 mm 3 mps 745 mmHg 91%
08:00 +11°C° 0 mm 3 mps 746 mmHg 89%
09:00 +11°C° 0 mm 3 mps 746 mmHg 87%
10:00 +12°C° 0 mm 3 mps 746 mmHg 86%
11:00 +13°C° 0 mm 3 mps 746 mmHg 78%
12:00 +16°C° 0 mm 3 mps 746 mmHg 70%
13:00 +17°C° 0 mm 3 mps 746 mmHg 63%
14:00 +18°C° 0 mm 3 mps 746 mmHg 60%
15:00 +18°C° 0 mm 2 mps 745 mmHg 57%
16:00 +18°C° 0 mm 2 mps 745 mmHg 54%
17:00 +17°C° 0 mm 2 mps 745 mmHg 60%
18:00 +16°C° 0 mm 2 mps 745 mmHg 65%
19:00 +15°C° 0 mm 2 mps 745 mmHg 71%
20:00 +14°C° 0 mm 2 mps 745 mmHg 72%
21:00 +14°C° 0 mm 2 mps 745 mmHg 74%
22:00 +13°C° 0 mm 2 mps 745 mmHg 75%
23:00 +13°C° 0.6 mm 2 mps 744 mmHg 81%

16 Mayo, Domingo

Tiempo Temperatura Precipitaciones Viento Presión Humedad
00:00 +13°C° 0.6 mm 2 mps 744 mmHg 86%
01:00 +12°C° 0.6 mm 2 mps 744 mmHg 92%
02:00 +12°C° 0.4 mm 2 mps 744 mmHg 93%
03:00 +11°C° 0.4 mm 3 mps 744 mmHg 94%
04:00 +11°C° 0.4 mm 3 mps 743 mmHg 95%
05:00 +11°C° 0.3 mm 3 mps 743 mmHg 95%
06:00 +12°C° 0.3 mm 3 mps 743 mmHg 95%
07:00 +13°C° 0.3 mm 2 mps 744 mmHg 95%
08:00 +14°C° 0.2 mm 2 mps 744 mmHg 91%
09:00 +14°C° 0.2 mm 2 mps 744 mmHg 87%
10:00 +15°C° 0.2 mm 2 mps 744 mmHg 82%
11:00 +16°C° 0.6 mm 2 mps 743 mmHg 79%
12:00 +17°C° 0.6 mm 2 mps 743 mmHg 75%
13:00 +17°C° 0.6 mm 2 mps 743 mmHg 72%
14:00 +16°C° 0.7 mm 2 mps 743 mmHg 78%
15:00 +15°C° 0.7 mm 2 mps 743 mmHg 85%
16:00 +13°C° 0.7 mm 3 mps 743 mmHg 91%
17:00 +12°C° 2 mm 3 mps 743 mmHg 93%
18:00 +12°C° 2 mm 3 mps 743 mmHg 95%
19:00 +11°C° 2 mm 3 mps 743 mmHg 96%
20:00 +11°C° 0.2 mm 3 mps 743 mmHg 96%
21:00 +12°C° 0.2 mm 2 mps 743 mmHg 95%
22:00 +10°C° 0.2 mm 2 mps 743 mmHg 95%
23:00 +10°C° 0 mm 2 mps 743 mmHg 95%

17 Mayo, Lunes

Tiempo Temperatura Precipitaciones Viento Presión Humedad
00:00 +9°C° 0 mm 2 mps 744 mmHg 95%
01:00 +8°C° 0 mm 2 mps 744 mmHg 95%
02:00 +8°C° 0 mm 2 mps 744 mmHg 95%
03:00 +7°C° 0 mm 2 mps 744 mmHg 95%
04:00 +7°C° 0 mm 2 mps 744 mmHg 94%
05:00 +9°C° 0 mm 2 mps 744 mmHg 90%
06:00 +10°C° 0 mm 2 mps 744 mmHg 86%
07:00 +13°C° 0 mm 2 mps 744 mmHg 82%
08:00 +14°C° 0.1 mm 2 mps 744 mmHg 77%
09:00 +16°C° 0.1 mm 2 mps 744 mmHg 71%
10:00 +17°C° 0.1 mm 2 mps 744 mmHg 66%
11:00 +18°C° 0.3 mm 2 mps 744 mmHg 65%
12:00 +18°C° 0.3 mm 2 mps 744 mmHg 63%
13:00 +19°C° 0.3 mm 2 mps 744 mmHg 62%
14:00 +19°C° 0.3 mm 2 mps 744 mmHg 63%
15:00 +19°C° 0.3 mm 2 mps 743 mmHg 65%
16:00 +18°C° 0.3 mm 2 mps 743 mmHg 66%
17:00 +17°C° 0.5 mm 2 mps 743 mmHg 72%
18:00 +15°C° 0.5 mm 2 mps 743 mmHg 79%
19:00 +14°C° 0.5 mm 2 mps 743 mmHg 85%
20:00 +13°C° 0 mm 2 mps 743 mmHg 87%
21:00 +13°C° 0 mm 2 mps 743 mmHg 88%
22:00 +12°C° 0 mm 2 mps 743 mmHg 90%
23:00 +12°C° 0 mm 2 mps 743 mmHg 91%

18 Mayo, Martes

Tiempo Temperatura Precipitaciones Viento Presión Humedad
00:00 +12°C° 0 mm 2 mps 743 mmHg 91%
01:00 +10°C° 0 mm 2 mps 744 mmHg 92%
02:00 +10°C° 0 mm 2 mps 744 mmHg 93%
03:00 +10°C° 0 mm 2 mps 744 mmHg 93%
04:00 +10°C° 0 mm 2 mps 744 mmHg 94%
05:00 +10°C° 0.3 mm 3 mps 744 mmHg 93%
06:00 +11°C° 0.3 mm 3 mps 744 mmHg 92%
07:00 +11°C° 0.3 mm 4 mps 744 mmHg 91%
08:00 +11°C° 1 mm 4 mps 745 mmHg 91%
09:00 +11°C° 1 mm 4 mps 745 mmHg 92%
10:00 +11°C° 1 mm 4 mps 745 mmHg 92%
11:00 +12°C° 1.2 mm 4 mps 745 mmHg 91%
12:00 +12°C° 1.2 mm 5 mps 745 mmHg 91%
13:00 +12°C° 1.2 mm 5 mps 745 mmHg 90%
14:00 +10°C° 1.3 mm 5 mps 746 mmHg 91%
15:00 +10°C° 1.3 mm 5 mps 746 mmHg 92%
16:00 +10°C° 1.3 mm 5 mps 746 mmHg 92%
17:00 +11°C° 1.7 mm 4 mps 746 mmHg 93%
18:00 +10°C° 1.7 mm 4 mps 747 mmHg 93%
19:00 +10°C° 1.7 mm 4 mps 747 mmHg 94%
20:00 +10°C° 1.4 mm 4 mps 747 mmHg 94%
21:00 +10°C° 1.4 mm 4 mps 748 mmHg 94%
22:00 +10°C° 1.4 mm 4 mps 748 mmHg 95%
23:00 +10°C° 0.5 mm 4 mps 748 mmHg 95%
Mostrar más

Necesitamos Su Consentimiento

Meteoprog y nuestros Proveedores de Servicios pueden almacenar y acceder a sus datos personales como cookies, identificadores de dispositivo u otras tecnologías similares de su dispositivo y procesar dichos datos para personalizar contenido y anuncios, además de ofrecer funciones de redes sociales y analizar el tráfico.

  • Almacenar y/o acceder a información en su dispositivo

    Se puede almacenar o acceder a cookies, identificadores de dispositivo u otra información de su dispositivo para los fines anteriormente indicados.

  • Anuncios y contenido personalizados, medición de anuncios y contenido, percepciones del público, y desarrollo de productos

    Los anuncios y el contenido pueden personalizarse en base a su perfil. Se pueden añadir más datos para personalizar mejor los anuncios y contenidos. Se puede medir el rendimiento de los anuncios y contenidos. Se puede obtener la percepción sobre el público que ha visto los anuncios y contenidos. Dichos datos pueden usarse para desarrollar o mejorar la experiencia del usuario, sistemas y software.

Al hacer clic en ‘Estoy De Acuerdo’ usted permitirá el uso de las cookies, identificadores de dispositivo, balizas web u otras tecnologías similares indicadas. Su configuración puede cambiarse desde el navegador de su dispositivo.

Para ciertos fines, los intereses legítimos pueden ser considerados por encima del consentimiento. Puede leer más sobre ello en nuestra Política de Privacidad y Cookies.